Content
SEND FEEDBACK

Daily
Averages
Monthly
Summary
Canada

MONTREAL, QUEBEC


Home > North America > Canada > Quebec
Elevation: 35 meters     Latitude: 45 28N     Longitude: 073 45W

WEATHER
 
SELECT A DAY
Number of Records: 202,545;   Date Range: 1/1/95 - 11/24/14
 
SHARE

PRINT THIS DATA

[ ← Previous Day ]
WEATHER ALMANAC - 28 JANUARY, 2013
[ Next Day → ]
[ °F ]   °C
Weather ElementAverageHighLow
Temperature-8.8 °C-6 °C (1:36 pm)-14 °C (1:00 am)
Dewpoint-14.9 °C-8 °C (2:00 pm)-20.6 °C (1:00 am)
Humidity74.2 %93 % (2:00 pm)41 % (1:00 am)
Wind Speed15.8 km/h27.8 km/h (4:30 pm)
Wind Gust37 km/h (9:00 pm)
Weather ElementAverage
Visibility10.1 km
Wind DirectionWSW (263.1 °)

Weather ElementTotal
Precipitation---
Heating Degree Days28.3 (Base 18.3)
Averaged from 42 records on 28 January, 2013
WEATHER CONDITIONS BREAKOUT
WIND DIRECTION BREAKOUT
WEATHER BY HOUR - 28 JANUARY, 2013
[ °F ]   °C
Local TimeTemperatureDewpointHumidityBarometerVisibilityWind DirectionWind SpeedGust SpeedPrecipitationEventsConditions
1:00 AM-13.3 °C-20.6 °C41 %1031.8 hPa24.1 kmSE (130°)3.7 km/hScattered Clouds
1:00 AM-14 °C-20 °C61 %1031.8 hPa24.1 kmSE (130°)5.6 km/hPartly Cloudy
2:00 AM-14 °C-20 °C61 %1031.8 hPa24.1 kmSouth (190°)3.7 km/hScattered Clouds
3:00 AM-12 °C-18 °C62 %1031.2 hPa24.1 kmSSE (160°)7.4 km/hScattered Clouds
4:00 AM-13 °C-17 °C73 %1030.1 hPa24.1 kmESE (120°)5.6 km/hMostly Cloudy
5:00 AM-12 °C-17 °C67 %1029.8 hPa24.1 kmSE (140°)7.4 km/hMostly Cloudy
6:00 AM-12 °C-16 °C73 %1029.5 hPa24.1 kmESE (110°)9.3 km/hMostly Cloudy
7:00 AM-11.1 °C-16.1 °C54 %1028.8 hPa24.1 kmESE (110°)9.3 km/hOvercast
7:00 AM-11 °C-16 °C67 %1028.8 hPa24.1 kmESE (110°)9.3 km/hOvercast
8:00 AM-10 °C-15 °C67 %1028.4 hPa24.1 kmEast (100°)9.3 km/hOvercast
9:00 AM-10 °C-14 °C73 %1027.1 hPa24.1 kmESE (110°)13 km/hOvercast
10:00 AM-9 °C-14 °C68 %1026.1 hPa24.1 kmEast (100°)13 km/hOvercast
11:00 AM-8 °C-14 °C63 %1025.1 hPa19.3 kmEast (100°)13 km/hOvercast
11:08 AM-8 °C-17.8 °C16.1 kmEast (100°)13 km/hSnowLight Snow
11:44 AM-7 °C-17.8 °C4 kmEast (90°)11.1 km/hSnowLight Snow
12:00 PM-7 °C-11 °C74 %1023.4 hPa6.4 kmEast (80°)14.8 km/hSnowLight Snow
12:35 PM-7 °C-17.8 °C3.2 kmEast (90°)13 km/hSnowLight Snow
1:00 PM-6.7 °C-9.4 °C73 %1021.7 hPa3.2 kmEast (90°)11.1 km/hSnowLight Snow
1:00 PM-7 °C-9 °C86 %1021.7 hPa2.9 kmEast (90°)11.1 km/hSnowLight Snow
1:22 PM-7 °C-17.8 °C2.4 kmEast (80°)14.8 km/hSnowLight Snow
1:36 PM-6 °C-17.8 °C1.6 kmEast (90°)14.8 km/hSnowLight Snow
2:00 PM-7 °C-8 °C93 %1020.3 hPa1.6 kmEast (80°)14.8 km/hSnowLight Snow
2:48 PM-7 °C-17.8 °C1.9 kmENE (70°)16.7 km/hSnowLight Snow
3:00 PM-7 °C-8 °C93 %1019 hPa2.9 kmEast (80°)16.7 km/hSnowLight Snow
3:14 PM-7 °C-17.8 °C0 km10.4 (2013°)0 mmLight Snow60
3:35 PM-6 °C-17.8 °C2.4 kmENE (60°)20.4 km/hSnowLight Snow
3:48 PM-6 °C-17.8 °C0 km11.5 (2013°)0 mmLight Snow50
4:00 PM-7 °C-9 °C86 %1018.3 hPa1.9 kmNE (40°)24.1 km/hSnowLight Snow
4:14 PM-8 °C-17.8 °C0 km15.0 (2013°)0 mmLight Snow40
4:30 PM-8 °C-17.8 °C1.6 kmNE (40°)27.8 km/hSnowLight Snow
5:00 PM-8 °C-10 °C86 %1017.9 hPa1.6 kmNE (40°)27.8 km/hSnowLight Snow
5:14 PM-8 °C-17.8 °C3.2 kmNE (40°)25.9 km/hSnowLight Snow
5:21 PM-8 °C-17.8 °C4.8 kmNE (40°)22.2 km/hSnowLight Snow
6:00 PM-8 °C-11 °C79 %1017.6 hPa8 kmNNE (30°)24.1 km/hSnowLight Snow
7:00 PM-8.3 °C-10.6 °C80 %1017.3 hPa3.2 kmNNE (30°)22.2 km/hSnowLight Snow
7:00 PM-8 °C-10 °C86 %1017.3 hPa3.2 kmNNE (30°)22.2 km/hSnowLight Snow
8:00 PM-9 °C-10 °C93 %1017.3 hPa1.9 kmNNE (20°)27.8 km/hSnowLight Snow
8:13 PM-9 °C-17.8 °C0 km16.1 (2013°)0 mmLight Snow20
8:29 PM-9 °C-17.8 °C2.4 kmNNE (20°)25.9 km/hSnowLight Snow
9:00 PM-9 °C-11 °C86 %1017.3 hPa4.8 kmNNE (20°)24.1 km/h37 km/hSnowLight Snow
10:00 PM-9 °C-11 °C86 %1017.3 hPa8 kmNNE (20°)20.4 km/hSnowLight Snow
11:00 PM-9 °C-13 °C73 %1017.3 hPa24.1 kmNNE (20°)22.2 km/hSnowLow Drifting Snow
Hourly data recorded from CYUL, located 0 kilometers away from Montreal, Quebec







STORIES FROM OUR PARTNERS